Mount Carmel, IL

2:53 PM CST on December 15, 2019 (GMT -0600)
Mount Carmel Municipal

Weather History for KAJG - October, 2019

Change the Weather History Date:

Thursday, October 17, 2019

  Actual Average (WUND) Record (WUND)
Temperature  
Mean Temperature 46 °F -  
Max Temperature 59 °F - - (-1)
Min Temperature 33 °F - - (-1)
Degree Days  
Heating Degree Days 19    
Moisture  
Dew Point 35 °F    
Average Humidity 73    
Maximum Humidity 97    
Minimum Humidity 39    
Precipitation  
Precipitation 0.00 in - - ()
Sea Level Pressure  
Sea Level Pressure 30.06 in    
Wind  
Wind Speed 5 mph (WNW)    
Max Wind Speed 9 mph    
Max Gust Speed -    
Visibility 10 miles    
Events      
Averages and records for this station are not official NWS values.
T = Trace of Precipitation, MM = Missing Value Source: NWS Daily Summary

Daily Weather History Graph

Daily Weather History Graph

Search for Another Location

Airport or City:

Astronomy

Oct. 17, 2019 Rise Set
Actual Time 7:01 AM CDT 6:10 PM CDT
Civil Twilight 6:35 AM CDT 6:36 PM CDT
Nautical Twilight 6:04 AM CDT 7:07 PM CDT
Astronomical Twilight 5:33 AM CDT 7:38 PM CDT
Moon 8:43 PM CDT (10/17) 10:31 AM CDT (10/17)
Length of Visible Light 12h 01m
Length of Day
11h 08m
Waning Gibbous, 86% of the Moon is Illuminated
Oct 17
Waning Gibbous
Oct 21
Last Quarter
Oct 27
New
Nov 4
First Quarter
Nov 12
Full

Hourly Weather History & Observations

Time (CDT) Temp. Windchill Dew Point Humidity Pressure Visibility Wind Dir Wind Speed Gust Speed Precip Events Conditions
12:15 AM 37.2 °F - 34.3 °F 89% 30.06 in 10.0 mi North - - N/A   Clear
12:35 AM 37.6 °F 35.1 °F 35.2 °F 91% 30.05 in 10.0 mi NW 3.5 mph - N/A   Clear
12:55 AM 35.8 °F - 33.6 °F 92% 30.06 in 10.0 mi North - - N/A   Clear
1:15 AM 36.5 °F 32.7 °F 34.7 °F 93% 30.06 in 10.0 mi West 4.6 mph - N/A   Clear
1:35 AM 36.0 °F - 33.1 °F 89% 30.06 in 10.0 mi North - - N/A   Clear
1:55 AM 34.9 °F - 32.9 °F 92% 30.06 in 10.0 mi North - - N/A   Clear
2:15 AM 34.9 °F - 33.3 °F 94% 30.06 in 10.0 mi North - - N/A   Clear
2:35 AM 35.1 °F - 33.6 °F 94% 30.06 in 10.0 mi North - - N/A   Clear
2:55 AM 34.7 °F - 33.1 °F 94% 30.06 in 10.0 mi North - - N/A   Clear
3:15 AM 33.8 °F - 32.4 °F 94% 30.07 in 10.0 mi North - - N/A   Clear
3:35 AM 33.8 °F - 32.9 °F 96% 30.06 in 10.0 mi North - - N/A   Clear
3:55 AM 34.5 °F - 33.1 °F 94% 30.06 in 10.0 mi North - - N/A   Clear
4:15 AM 34.7 °F - 33.3 °F 94% 30.06 in 10.0 mi North - - N/A   Clear
4:35 AM 34.9 °F - 33.3 °F 94% 30.06 in 10.0 mi North - - N/A   Clear
4:55 AM 33.6 °F - 32.0 °F 94% 30.06 in 10.0 mi North - - N/A   Clear
5:15 AM 34.0 °F - 32.7 °F 95% 30.06 in 10.0 mi North - - N/A   Clear
5:35 AM 33.6 °F - 32.4 °F 95% 30.06 in 10.0 mi North - - N/A   Clear
5:55 AM 33.6 °F - 32.4 °F 95% 30.06 in 10.0 mi North - - N/A   Clear
6:15 AM 33.8 °F - 32.4 °F 94% 30.06 in 10.0 mi North - - N/A   Clear
6:35 AM 34.7 °F - 33.8 °F 97% 30.06 in 10.0 mi North - - N/A   Clear
6:55 AM 33.3 °F - 32.2 °F 96% 30.06 in 10.0 mi North - - N/A   Clear
7:15 AM 33.3 °F 27.9 °F 32.2 °F 96% 30.07 in 10.0 mi West 5.8 mph - N/A   Clear
7:35 AM 34.7 °F - 33.4 °F 95% 30.08 in 10.0 mi North - - N/A   Clear
7:55 AM 36.1 °F 32.3 °F 35.1 °F 96% 30.08 in 10.0 mi West 4.6 mph - N/A   Clear
8:15 AM 39.2 °F - 37.4 °F 93% 30.09 in 10.0 mi North - - N/A   Clear
8:35 AM 41.9 °F - 38.7 °F 88% 30.09 in 10.0 mi North - - N/A   Clear
8:55 AM 44.1 °F - 37.9 °F 79% 30.10 in 10.0 mi North - - N/A   Clear
9:15 AM 46.0 °F - 38.1 °F 74% 30.11 in 10.0 mi North - - N/A   Clear
9:35 AM 47.8 °F - 38.1 °F 69% 30.11 in 10.0 mi North - - N/A   Clear
9:55 AM 49.5 °F - 37.8 °F 64% 30.11 in 10.0 mi North - - N/A   Clear
10:15 AM 50.9 °F - 37.4 °F 60% 30.11 in 10.0 mi North - - N/A   Clear
10:35 AM 52.5 °F - 36.3 °F 54% 30.10 in 10.0 mi North - - N/A   Clear
10:55 AM 53.1 °F - 35.2 °F 51% 30.09 in 10.0 mi West 5.8 mph - N/A   Clear
11:15 AM 53.4 °F - 35.1 °F 50% 30.09 in 10.0 mi North 8.1 mph - N/A   Clear
11:35 AM 55.8 °F - 35.6 °F 47% 30.09 in 10.0 mi North - - N/A   Clear
11:55 AM 55.8 °F - 35.1 °F 46% 30.08 in 10.0 mi North - - N/A   Clear
12:15 PM 55.2 °F - 34.7 °F 46% 30.07 in 10.0 mi North - - N/A   Clear
12:35 PM 56.1 °F - 35.1 °F 45% 30.07 in 10.0 mi North - - N/A   Clear
12:55 PM 56.1 °F - 35.1 °F 45% 30.06 in 10.0 mi North - - N/A   Clear
1:15 PM 57.2 °F - 35.2 °F 44% 30.06 in 10.0 mi WNW 9.2 mph - N/A   Clear
1:35 PM 57.2 °F - 34.7 °F 43% 30.05 in 10.0 mi North - - N/A   Clear
1:55 PM 58.1 °F - 34.7 °F 41% 30.04 in 10.0 mi West 8.1 mph - N/A   Clear
2:15 PM 58.6 °F - 33.8 °F 39% 30.04 in 10.0 mi NW 8.1 mph - N/A   Clear
2:35 PM 58.1 °F - 34.5 °F 41% 30.03 in 10.0 mi North 6.9 mph - N/A   Clear
2:55 PM 59.4 °F - 34.5 °F 39% 30.03 in 10.0 mi NW 8.1 mph - N/A   Clear
3:15 PM 58.6 °F - 34.3 °F 40% 30.03 in 10.0 mi NW 5.8 mph - N/A   Clear
3:35 PM 59.2 °F - 34.5 °F 40% 30.03 in 10.0 mi North - - N/A   Clear
3:55 PM 59.4 °F - 34.7 °F 40% 30.03 in 10.0 mi North - - N/A   Clear
4:15 PM 59.4 °F - 34.5 °F 39% 30.02 in 10.0 mi West 5.8 mph - N/A   Clear
4:35 PM 58.6 °F - 34.5 °F 40% 30.02 in 10.0 mi WNW 5.8 mph - N/A   Clear
4:55 PM 58.6 °F - 34.5 °F 40% 30.02 in 10.0 mi North - - N/A   Clear
5:15 PM 57.9 °F - 34.3 °F 41% 30.01 in 10.0 mi North - - N/A   Clear
5:30 PM 57.2 °F - 34.5 °F 43% 30.01 in 10.0 mi North - - N/A   Clear
5:55 PM 55.2 °F - 34.9 °F 46% 30.02 in 10.0 mi North - - N/A   Clear
6:15 PM 52.2 °F - 36.3 °F 55% 30.02 in 10.0 mi North - - N/A   Clear
6:35 PM 49.3 °F - 36.9 °F 62% 30.02 in 7.0 mi North - - N/A   Clear
6:55 PM 46.4 °F - 37.4 °F 71% 30.02 in 10.0 mi North - - N/A   Clear
7:15 PM 46.8 °F - 36.9 °F 68% 30.03 in 10.0 mi North - - N/A   Clear
7:35 PM 44.6 °F - 39.2 °F 81% 30.03 in 10.0 mi North - - N/A   Clear
7:55 PM 44.2 °F - 39.0 °F 82% 30.03 in 10.0 mi North - - N/A   Clear
8:15 PM 43.0 °F - 36.7 °F 78% 30.04 in 10.0 mi North - - N/A   Clear
8:35 PM 41.5 °F - 37.9 °F 87% 30.04 in 10.0 mi North - - N/A   Clear
8:55 PM 41.9 °F - 38.5 °F 88% 30.04 in 7.0 mi North - - N/A   Clear
9:15 PM 39.6 °F - 37.4 °F 92% 30.04 in 10.0 mi North - - N/A   Clear
9:35 PM 39.7 °F - 38.1 °F 94% 30.04 in 10.0 mi North - - N/A   Clear
9:55 PM 40.5 °F - 37.2 °F 88% 30.04 in 10.0 mi North - - N/A   Clear
10:15 PM 39.4 °F - 36.5 °F 89% 30.05 in 10.0 mi North - - N/A   Clear
10:35 PM 38.5 °F - 35.6 °F 89% 30.05 in 10.0 mi Calm Calm - N/A   Clear
10:55 PM 38.5 °F - 35.6 °F 89% 30.05 in 10.0 mi North - - N/A   Clear
11:15 PM 38.3 °F - 35.8 °F 91% 30.05 in 7.0 mi North - - N/A   Clear
11:35 PM 37.9 °F - 36.5 °F 95% 30.05 in 10.0 mi North - - N/A   Clear
11:55 PM 37.2 °F - 35.1 °F 92% 30.04 in 3.0 mi Calm Calm - N/A   Clear